マクミラン彗星

208P/McMillan (2000)

English version
Home page
Updated on December 7, 2008

---------------------------------------------------------------------

・ プロフィール

符号 208P/2000 S7

・ 軌道要素

                    Epoch = 2000 Dec.  2.0 TT
     T = 2000 Dec.  8.9745 TT         Peri. = 217.3768
     e = 0.350672                     Node  = 152.9971  2000.0
     q = 2.693367 AU                  Incl. =   7.1433
       a =  4.147928 AU    n = 0.1166695    P =   8.45 years

・ 光度変化

        m1 = 12.7 + 5 logΔ + 10.0 log r

---------------------------------------------------------------------

軌道要素は、IAUC 9000に掲載されたものです。
光度グラフはComet for Windowsで作成したものです。

---------------------------------------------------------------------

Copyright(C) Seiichi Yoshida (comet@aerith.net). All rights reserved.